Weather History for North Wilkesboro, NC

Change the Weather History Date:

Monday, January 2, 2012

  Actual Average Record
Temperature  
Mean Temperature 33 °F -  
Max Temperature 42 °F 50 °F 68 °F (1966)
Min Temperature 24 °F 26 °F 8 °F (1977)
Degree Days  
Heating Degree Days 32    
Moisture  
Dew Point 13 °F    
Average Humidity 39    
Maximum Humidity 80    
Minimum Humidity 30    
Precipitation  
Precipitation 0.00 in - - ()
Sea Level Pressure  
Sea Level Pressure 30.02 in    
Wind  
Wind Speed - (North)    
Max Wind Speed -    
Max Gust Speed -    
Visibility 10 miles    
Events      
Averages and records for this station are not official NWS values.
T = Trace of Precipitation, MM = Missing Value Source: NWS Daily Summary

Daily Weather History Graph

Daily Weather History Graph

Search for Another Location

Airport:

Trip Planner

Search our weather history database for the weather conditions in past years. The results will help you decide how hot, cold, wet, or windy it might be!

Date:

Astronomy

Jan. 02, 2012 Rise Set
Actual Time 7:35 AM EST 5:20 PM EST
Civil Twilight 7:07 AM EST 5:49 PM EST
Nautical Twilight 6:35 AM EST 6:21 PM EST
Astronomical Twilight 6:03 AM EST 6:52 PM EST
Moon 12:32 PM EST (1/2) 1:32 AM EST (1/2)
Length of Visible Light 10h 42m
Length of Day
9h 45m
Waxing Gibbous, 63% of the Moon is Illuminated
Jan 2
Waxing Gibbous
Jan 9
Full
Jan 16
Last Quarter
Jan 23
New
Jan 30
First Quarter

Hourly Weather History & Observations

Time (EST) Temp. Dew Point Humidity Pressure Visibility Wind Dir Wind Speed Gust Speed Precip Events Conditions
12:15 AM 42.8 °F 21.2 °F 42% 30.04 in 10.0 mi North - - N/A   Mostly Cloudy
12:35 AM 42.8 °F 21.2 °F 42% 30.03 in 10.0 mi North - - N/A   Mostly Cloudy
1:15 AM 42.8 °F 17.6 °F 36% 30.02 in 10.0 mi North - - N/A   Clear
1:35 AM 42.8 °F 19.4 °F 39% 30.01 in 10.0 mi North - - N/A   Clear
1:55 AM 42.8 °F 21.2 °F 42% 30.01 in 10.0 mi North - - N/A   Scattered Clouds
2:15 AM 42.8 °F 21.2 °F 42% 30.01 in 10.0 mi North - - N/A   Scattered Clouds
2:35 AM 41.0 °F 19.4 °F 42% 30.02 in 10.0 mi North - - N/A   Scattered Clouds
2:55 AM 41.0 °F 15.8 °F 36% 30.02 in 10.0 mi North - - N/A   Clear
3:35 AM 39.2 °F 15.8 °F 39% 30.01 in 10.0 mi North - - N/A   Clear
3:55 AM 39.2 °F 15.8 °F 39% 30.01 in 10.0 mi North - - N/A   Clear
4:15 AM 39.2 °F 15.8 °F 39% 30.01 in 10.0 mi North - - N/A   Clear
4:35 AM 37.4 °F 15.8 °F 41% 30.01 in 10.0 mi North - - N/A   Clear
4:55 AM 37.4 °F 15.8 °F 41% 30.01 in 10.0 mi North - - N/A   Clear
5:15 AM 37.4 °F 14.0 °F 38% 30.02 in 10.0 mi North - - N/A   Clear
5:35 AM 37.4 °F 14.0 °F 38% 30.02 in 10.0 mi North - - N/A   Clear
5:55 AM 37.4 °F 14.0 °F 38% 30.02 in 10.0 mi North - - N/A   Clear
6:15 AM 35.6 °F 14.0 °F 41% 30.02 in 10.0 mi North - - N/A   Clear
6:35 AM 35.6 °F 12.2 °F 38% 30.02 in 10.0 mi North - - N/A   Clear
6:55 AM 35.6 °F 12.2 °F 38% 30.03 in 10.0 mi North - - N/A   Clear
7:15 AM 35.6 °F 10.4 °F 35% 30.03 in 10.0 mi North - - N/A   Clear
7:35 AM 35.6 °F 10.4 °F 35% 30.03 in 10.0 mi North - - N/A   Clear
7:55 AM 35.6 °F 10.4 °F 35% 30.04 in 10.0 mi North - - N/A   Clear
8:15 AM 35.6 °F 10.4 °F 35% 30.04 in 10.0 mi North - - N/A   Clear
8:35 AM 35.6 °F 10.4 °F 35% 30.04 in 10.0 mi North - - N/A   Clear
8:55 AM 35.6 °F 10.4 °F 35% 30.04 in 10.0 mi North - - N/A   Clear
9:15 AM 37.4 °F 12.2 °F 36% 30.05 in 10.0 mi North - - N/A   Clear
9:35 AM 37.4 °F 12.2 °F 36% 30.05 in 10.0 mi North - - N/A   Clear
9:55 AM 37.4 °F 12.2 °F 36% 30.04 in 10.0 mi North - - N/A   Clear
10:15 AM 39.2 °F 12.2 °F 33% 30.04 in 10.0 mi North - - N/A   Clear
10:35 AM 39.2 °F 12.2 °F 33% 30.03 in 10.0 mi North - - N/A   Clear
11:15 AM 39.2 °F 12.2 °F 33% 30.01 in 10.0 mi North - - N/A   Clear
11:35 AM 39.2 °F 14.0 °F 36% 30.01 in 10.0 mi North - - N/A   Clear
11:55 AM 39.2 °F 12.2 °F 33% 29.99 in 10.0 mi North - - N/A   Clear
12:15 PM 39.2 °F 14.0 °F 36% 29.99 in 10.0 mi North - - N/A   Clear
12:35 PM 41.0 °F 14.0 °F 33% 29.98 in 10.0 mi North - - N/A   Scattered Clouds
12:55 PM 39.2 °F 12.2 °F 33% 29.98 in 10.0 mi North - - N/A   Clear
1:15 PM 41.0 °F 12.2 °F 31% 29.97 in 10.0 mi North - - N/A   Clear
1:35 PM 39.2 °F 10.4 °F 31% 29.97 in 10.0 mi North - - N/A   Mostly Cloudy
1:55 PM 39.2 °F 12.2 °F 33% 29.97 in 10.0 mi North - - N/A   Scattered Clouds
2:15 PM 39.2 °F 12.2 °F 33% 29.97 in 10.0 mi North - - N/A   Mostly Cloudy
2:35 PM 39.2 °F 12.2 °F 33% 29.97 in 10.0 mi North - - N/A   Overcast
3:15 PM 35.6 °F 10.4 °F 35% 29.98 in 10.0 mi North - - N/A   Scattered Clouds
3:35 PM 37.4 °F 12.2 °F 36% 29.99 in 10.0 mi North - - N/A   Mostly Cloudy
3:55 PM 37.4 °F 12.2 °F 36% 29.99 in 10.0 mi North - - N/A   Overcast
4:15 PM 37.4 °F 10.4 °F 33% 30.00 in 10.0 mi North - - N/A   Overcast
4:35 PM 35.6 °F 10.4 °F 35% 30.00 in 10.0 mi North - - N/A   Overcast
4:55 PM 33.8 °F 10.4 °F 38% 30.00 in 10.0 mi North - - N/A   Overcast
5:15 PM 33.8 °F 8.6 °F 35% 30.00 in 10.0 mi North - - N/A   Mostly Cloudy
5:35 PM 33.8 °F 6.8 °F 32% 30.01 in 10.0 mi North - - N/A   Mostly Cloudy
5:55 PM 33.8 °F 5.0 °F 30% 30.02 in 10.0 mi North - - N/A   Scattered Clouds
6:15 PM 32.0 °F 6.8 °F 35% 30.03 in 10.0 mi North - - N/A   Scattered Clouds
6:35 PM 32.0 °F 3.2 °F 30% 30.03 in 10.0 mi North - - N/A   Clear
6:55 PM 30.2 °F 8.6 °F 40% 30.04 in 10.0 mi North - - N/A   Scattered Clouds
7:15 PM 28.4 °F 17.6 °F 64% 30.05 in 10.0 mi North - - N/A   Scattered Clouds
7:35 PM 26.6 °F 21.2 °F 80% 30.06 in 1.0 mi North - - N/A   Overcast
7:55 PM 26.6 °F 21.2 °F 80% 30.06 in 7.0 mi North - - N/A   Overcast
8:15 PM 26.6 °F 17.6 °F 69% 30.06 in 10.0 mi North - - N/A   Scattered Clouds
8:35 PM 26.6 °F 10.4 °F 51% 30.07 in 10.0 mi North - - N/A   Clear
8:55 PM 26.6 °F 6.8 °F 43% 30.07 in 10.0 mi North - - N/A   Clear
9:15 PM 24.8 °F 5.0 °F 43% 30.08 in 10.0 mi North - - N/A   Clear
9:35 PM 24.8 °F 5.0 °F 43% 30.08 in 10.0 mi North - - N/A   Clear
9:55 PM 24.8 °F 6.8 °F 46% 30.09 in 10.0 mi North - - N/A   Clear
10:15 PM 24.8 °F 6.8 °F 46% 30.09 in 10.0 mi North - - N/A   Clear
10:35 PM 24.8 °F 8.6 °F 50% 30.09 in 10.0 mi North - - N/A   Clear
10:55 PM 23.0 °F 8.6 °F 54% 30.08 in 10.0 mi North - - N/A   Clear
11:15 PM 23.0 °F 6.8 °F 50% 30.09 in 10.0 mi North - - N/A   Clear
11:35 PM 23.0 °F 6.8 °F 50% 30.08 in 10.0 mi North - - N/A   Clear
11:55 PM 23.0 °F 6.8 °F 50% 30.09 in 10.0 mi North - - N/A   Clear